GW2696 Weather Reports


Display with metric or nautical units.
time (UTC)temp
F
wind
direction
speed
MPH
gust
MPH
rain 1hr
in
rain 24hr
in
rain mn
in
humidity
%
barometer
mb
20260504231217 57 203 20.0 26.0 0.00 0.00 0.00 30 1010.7
20260504230238 57 203 21.0 24.0 0.00 0.00 0.00 30 1010.2
20260504225218 57 203 17.0 24.0 0.00 0.00 0.00 28 1010.3
20260504224217 58 203 21.0 30.0 0.00 0.00 0.00 29 1010.6
20260504223218 58 203 17.0 21.0 0.00 0.00 0.00 31 1010.8
20260504222217 59 203 20.0 27.0 0.00 0.00 0.00 32 1010.7
20260504221237 59 203 18.0 25.0 0.00 0.00 0.00 32 1011.0
20260504220217 59 225 16.0 30.0 0.00 0.00 0.00 32 1011.7
20260504215217 58 203 20.0 26.0 0.00 0.00 0.00 32 1011.8
20260504214217 58 180 18.0 24.0 0.00 0.00 0.00 33 1011.9
20260504213217 59 203 19.0 22.0 0.00 0.00 0.00 29 1012.1
20260504212218 58 203 16.0 21.0 0.00 0.00 0.00 32 1012.2
20260504211217 59 203 17.0 22.0 0.00 0.00 0.00 32 1012.1
20260504210218 58 203 14.0 22.0 0.00 0.00 0.00 35 1011.9
20260504205217 59 203 15.0 20.0 0.00 0.00 0.00 32 1012.4
20260504204218 59 203 18.0 25.0 0.00 0.00 0.00 34 1012.7
20260504203217 59 203 16.0 24.0 0.00 0.00 0.00 35 1012.9
20260504202238 60 225 14.0 18.0 0.00 0.00 0.00 35 1013.3
20260504201217 61 203 12.0 17.0 0.00 0.00 0.00 34 1013.1
20260504200217 61 203 18.0 23.0 0.00 0.00 0.00 31 1013.8
20260504195218 61 225 16.0 25.0 0.00 0.00 0.00 29 1013.6
20260504194217 61 203 20.0 25.0 0.00 0.00 0.00 28 1013.3
20260504193217 61 203 16.0 20.0 0.00 0.00 0.00 32 1013.8
20260504192218 60 203 20.0 25.0 0.00 0.00 0.00 31 1013.6
20260504191237 59 225 11.0 20.0 0.00 0.00 0.00 35 1012.9
20260504190218 59 203 14.0 22.0 0.00 0.00 0.00 39 1013.6
20260504185258 58 203 13.0 18.0 0.00 0.00 0.00 41 1013.5
20260504184217 57 203 12.0 18.0 0.00 0.00 0.00 45 1013.5
20260504183217 57 203 12.0 18.0 0.00 0.00 0.00 43 1013.6
20260504182218 56 203 12.0 17.0 0.00 0.00 0.00 47 1013.9
20260504181217 55 180 13.0 19.0 0.00 0.00 0.00 48 1013.7
20260504180237 55 180 12.0 16.0 0.00 0.00 0.00 49 1013.5
20260504175217 54 203 13.0 16.0 0.00 0.00 0.00 48 1013.7
20260504174217 53 180 11.0 19.0 0.00 0.00 0.00 49 1013.2
20260504173217 53 203 13.0 21.0 0.00 0.00 0.00 49 1013.9
20260504172217 53 203 15.0 18.0 0.00 0.00 0.00 51 1013.4
20260504171218 53 203 12.0 19.0 0.00 0.00 0.00 52 1013.6
20260504170217 53 203 11.0 15.0 0.00 0.00 0.00 51 1013.4
20260504160217 52 203 8.0 12.0 0.00 0.00 0.00 53 1013.4
20260504150219 51 248 8.0 11.0 0.00 0.00 0.00 48 1012.9
20260504141239 50 203 6.0 9.0 0.00 0.00 0.00 46 1013.4
20260504140239 50 203 12.0 19.0 0.00 0.00 0.00 45 1013.5
20260504130238 50 203 11.0 16.0 0.00 0.00 0.00 39 1013.4
20260504120218 51 203 13.0 19.0 0.00 0.00 0.00 41 1013.8
20260504110239 51 203 16.0 21.0 0.00 0.00 0.00 45 1014.5
20260504100238 51 203 13.0 19.0 0.00 0.00 0.00 46 1015.3
20260504081237 54 203 13.0 19.0 0.00 0.00 0.00 36 1015.8
20260504080217 54 203 14.0 23.0 0.00 0.00 0.00 35 1015.8
20260504070345 56 203 11.0 15.0 0.00 0.00 0.00 34 1016.4
20260504060238 58 225 11.0 15.0 0.00 0.00 0.00 30 1016.1
20260504050238 60 203 6.0 9.0 0.00 0.00 0.00 26 1016.6
20260504045237 60 203 9.0 17.0 0.00 0.00 0.00 26 1016.6
20260504044216 60 225 5.0 7.0 0.00 0.00 0.00 26 1016.7
20260504043216 60 203 9.0 13.0 0.00 0.00 0.00 26 1015.8
20260504042217 61 203 10.0 15.0 0.00 0.00 0.00 26 1016.0
20260504041217 61 203 10.0 14.0 0.00 0.00 0.00 26 1016.0
20260504040237 61 180 14.0 18.0 0.00 0.00 0.00 27 1015.2
20260504035216 61 203 7.0 10.0 0.00 0.00 0.00 27 1015.0
20260504034237 61 203 13.0 17.0 0.00 0.00 0.00 27 1015.0
20260504033216 60 225 11.0 16.0 0.00 0.00 0.00 27 1014.6
20260504032216 60 203 8.0 11.0 0.00 0.00 0.00 29 1014.5
20260504031216 60 203 9.0 13.0 0.00 0.00 0.00 29 1014.3
20260504030216 61 180 7.0 9.0 0.00 0.00 0.00 29 1013.9
20260504025218 61 203 10.0 14.0 0.00 0.00 0.00 29 1013.9
20260504024220 61 203 8.0 13.0 0.00 0.00 0.00 30 1013.6
20260504023239 61 203 8.0 10.0 0.00 0.00 0.00 30 1012.7
20260504022219 62 203 9.0 10.0 0.00 0.00 0.00 30 1012.9
20260504021219 62 225 12.0 18.0 0.00 0.00 0.00 30 1013.0
20260504020239 63 203 9.0 11.0 0.00 0.00 0.00 30 1011.3
20260504015218 63 203 9.0 14.0 0.00 0.00 0.00 30 1011.7
20260504014219 63 203 14.0 17.0 0.00 0.00 0.00 29 1011.8
20260504013219 64 203 12.0 17.0 0.00 0.00 0.00 28 1010.8
20260504012219 65 203 11.0 16.0 0.00 0.00 0.00 26 1010.8
20260504011219 65 203 12.0 16.0 0.00 0.00 0.00 26 1010.9
20260504010218 66 225 10.0 16.0 0.00 0.00 0.00 25 1011.4
20260504005218 67 203 11.0 17.0 0.00 0.00 0.00 23 1011.5
20260504004219 68 158 6.0 11.0 0.00 0.00 0.00 23 1011.9
20260504003219 67 158 6.0 15.0 0.00 0.00 0.00 24 1011.5
20260504002219 66 135 3.0 5.0 0.00 0.00 0.00 25 1011.5
20260504001218 66 180 8.0 15.0 0.00 0.00 0.00 24 1011.7
20260504000219 67 203 14.0 18.0 0.00 0.00 0.00 24 1012.0
20260503235219 67 203 11.0 14.0 0.00 0.00 0.00 25 1012.3
20260503234219 67 203 8.0 13.0 0.00 0.00 0.00 26 1012.5
20260503233239 67 180 6.0 10.0 0.00 0.00 0.00 25 1012.4
20260503232218 68 180 6.0 12.0 0.00 0.00 0.00 24 1012.4